El Centro, CA

8:39 AM PST on December 13, 2017 (GMT -0800)
El Centro Naval Air Facility

Weather History for KNJK - November, 2012

Change the Weather History Date:

Saturday, November 3, 2012

  Actual Average Record
Temperature  
Mean Temperature 72 °F -  
Max Temperature 89 °F 79 °F 95 °F (2010)
Min Temperature 57 °F 54 °F 46 °F (2004)
Cooling Degree Days 8    
Growing Degree Days 22 (Base 50)    
Moisture  
Dew Point 35 °F    
Average Humidity 30    
Maximum Humidity 45    
Minimum Humidity 14    
Precipitation  
Precipitation 0.00 in - - ()
Sea Level Pressure  
Sea Level Pressure 30.00 in    
Wind  
Wind Speed 4 mph (WSW)    
Max Wind Speed 8 mph    
Max Gust Speed -    
Visibility 10 miles    
Events      
Averages and records for this station are not official NWS values.
T = Trace of Precipitation, MM = Missing Value Source: NWS Daily Summary

Daily Weather History Graph

Daily Weather History Graph

Search for Another Location

Airport or City:

Trip Planner

Search our weather history database for the weather conditions in past years. The results will help you decide how hot, cold, wet, or windy it might be!

Date:

Astronomy

Nov. 03, 2012 Rise Set
Actual Time 7:02 AM PDT 5:49 PM PDT
Civil Twilight 6:37 AM PDT 6:14 PM PDT
Nautical Twilight 6:07 AM PDT 6:44 PM PDT
Astronomical Twilight 5:38 AM PDT 7:13 PM PDT
Moon 9:39 PM PDT (11/3) 11:04 AM PDT (11/3)
Length of Visible Light 11h 37m
Length of Day
10h 46m
Waning Gibbous, 79% of the Moon is Illuminated
Nov 3
Waning Gibbous
Nov 6
Last Quarter
Nov 13
New
Nov 20
First Quarter
Nov 28
Full

Hourly Weather History & Observations

Time (PDT) Temp. Dew Point Humidity Pressure Visibility Wind Dir Wind Speed Gust Speed Precip Events Conditions
12:56 AM 59.0 °F 37.0 °F 44% 29.95 in 10.0 mi West 4.6 mph - N/A   Clear
1:56 AM 59.0 °F 35.1 °F 41% 29.96 in 10.0 mi WSW 5.8 mph - N/A   Clear
2:56 AM 57.9 °F 35.1 °F 42% 29.96 in 10.0 mi SW 5.8 mph - N/A   Clear
3:56 AM 57.0 °F 36.0 °F 45% 29.96 in 10.0 mi WSW 5.8 mph - N/A   Clear
4:56 AM 57.9 °F 34.0 °F 41% 29.96 in 10.0 mi WSW 5.8 mph - N/A   Clear
5:56 AM 59.0 °F 35.1 °F 41% 29.98 in 10.0 mi WSW 5.8 mph - N/A   Clear
6:56 AM 57.9 °F 34.0 °F 41% 29.99 in 10.0 mi SW 4.6 mph - N/A   Clear
7:56 AM 60.1 °F 33.1 °F 36% 30.01 in 10.0 mi WSW 3.5 mph - N/A   Clear
8:56 AM 66.9 °F 34.0 °F 30% 30.03 in 10.0 mi Calm Calm - N/A   Partly Cloudy
9:56 AM 72.0 °F 35.1 °F 26% 30.04 in 10.0 mi Calm Calm - N/A   Partly Cloudy
10:56 AM 77.0 °F 36.0 °F 23% 30.04 in 10.0 mi West 3.5 mph - N/A   Partly Cloudy
11:56 AM 82.9 °F 34.0 °F 17% 30.04 in 10.0 mi North 5.8 mph - N/A   Clear
12:56 PM 84.9 °F 35.1 °F 17% 30.01 in 10.0 mi Variable 4.6 mph - N/A   Partly Cloudy
1:56 PM 86.0 °F 32.0 °F 14% 29.99 in 10.0 mi NW 3.5 mph - N/A   Clear
2:56 PM 88.0 °F 34.0 °F 15% 29.98 in 10.0 mi Calm Calm - N/A   Clear
3:56 PM 88.0 °F 32.0 °F 14% 29.97 in 10.0 mi Calm Calm - N/A   Clear
4:56 PM 87.1 °F 34.0 °F 15% 29.97 in 10.0 mi WNW 3.5 mph - N/A   Clear
5:56 PM 82.0 °F 33.1 °F 17% 29.97 in 10.0 mi WSW 3.5 mph - N/A   Clear
6:56 PM 75.9 °F 36.0 °F 23% 29.99 in 10.0 mi WSW 3.5 mph - N/A   Clear
7:56 PM 70.0 °F 39.0 °F 32% 30.00 in 10.0 mi NNW 3.5 mph - N/A   Clear
8:56 PM 69.1 °F 41.0 °F 36% 30.01 in 10.0 mi SE 3.5 mph - N/A   Clear
9:56 PM 66.0 °F 39.9 °F 38% 30.03 in 10.0 mi SW 3.5 mph - N/A   Clear
10:56 PM 63.0 °F 36.0 °F 37% 30.04 in 10.0 mi West 6.9 mph - N/A   Clear
11:56 PM 62.1 °F 32.0 °F 32% 30.05 in 10.0 mi West 8.1 mph - N/A   Clear